TimeCDT,TemperatureF,Dew PointF,Humidity,Sea Level PressureIn,VisibilityMPH,Wind Direction,Wind SpeedMPH,Gust SpeedMPH,PrecipitationIn,Events,Conditions,WindDirDegrees,DateUTC
12:53 AM,73.0,70.0,90,30.07,10.0,Calm,Calm,-,N/A,,Clear,0,2013-08-04 05:53:00
1:53 AM,72.0,70.0,93,30.06,9.0,Calm,Calm,-,N/A,,Clear,0,2013-08-04 06:53:00
2:53 AM,71.1,68.0,90,30.05,8.0,NNW,3.5,-,N/A,,Clear,340,2013-08-04 07:53:00
3:53 AM,70.0,68.0,93,30.05,9.0,Calm,Calm,-,N/A,,Clear,0,2013-08-04 08:53:00
4:53 AM,69.1,66.0,90,30.07,10.0,Calm,Calm,-,N/A,,Clear,0,2013-08-04 09:53:00
5:53 AM,66.9,64.9,93,30.10,10.0,Calm,Calm,-,N/A,,Clear,0,2013-08-04 10:53:00
6:53 AM,69.1,66.0,90,30.12,9.0,Calm,Calm,-,N/A,,Clear,0,2013-08-04 11:53:00
7:53 AM,71.1,66.0,84,30.12,10.0,ENE,6.9,-,N/A,,Clear,60,2013-08-04 12:53:00
8:53 AM,73.0,63.0,71,30.13,10.0,ENE,6.9,-,N/A,,Clear,60,2013-08-04 13:53:00
9:53 AM,75.9,61.0,60,30.14,10.0,ENE,8.1,-,N/A,,Clear,70,2013-08-04 14:53:00
10:53 AM,79.0,63.0,58,30.14,10.0,Variable,5.8,-,N/A,,Clear,0,2013-08-04 15:53:00
11:53 AM,80.1,63.0,56,30.13,10.0,East,6.9,-,N/A,,Clear,80,2013-08-04 16:53:00
12:53 PM,80.1,63.0,56,30.12,10.0,NE,6.9,-,N/A,,Clear,40,2013-08-04 17:53:00
1:53 PM,80.1,64.0,58,30.11,10.0,ENE,5.8,-,N/A,,Clear,70,2013-08-04 18:53:00
2:53 PM,81.0,64.0,56,30.10,10.0,NNE,10.4,-,N/A,,Clear,20,2013-08-04 19:53:00
3:53 PM,81.0,63.0,54,30.09,10.0,ENE,8.1,-,N/A,,Clear,60,2013-08-04 20:53:00
4:53 PM,81.0,63.0,54,30.09,10.0,ENE,9.2,-,N/A,,Clear,70,2013-08-04 21:53:00
5:53 PM,78.1,62.1,58,30.08,10.0,ENE,8.1,-,N/A,,Clear,60,2013-08-04 22:53:00
6:53 PM,75.9,64.0,67,30.09,10.0,NE,5.8,-,N/A,,Clear,50,2013-08-04 23:53:00
7:53 PM,73.0,62.1,68,30.08,10.0,ENE,5.8,-,N/A,,Clear,60,2013-08-05 00:53:00
8:53 PM,69.1,63.0,81,30.08,10.0,ENE,3.5,-,N/A,,Clear,60,2013-08-05 01:53:00
9:53 PM,70.0,63.0,78,30.09,10.0,Calm,Calm,-,N/A,,Clear,0,2013-08-05 02:53:00
10:53 PM,71.1,62.1,73,30.10,10.0,Calm,Calm,-,N/A,,Clear,0,2013-08-05 03:53:00
11:53 PM,66.0,63.0,90,30.08,10.0,Calm,Calm,-,N/A,,Partly Cloudy,0,2013-08-05 04:53:00